Location: Gammelsbach
(49.5261°N, 8.9630°E)
Time: 21:36:46
(UTC+00:00)

Okean 1-7 - Pass Details

Date: 17 June 2025
Orbit: 570 x 592 km, 82.5° (Epoch: 16 July)

Event Time Altitude Azimuth Distance (km) Brightness Sun altitude
Exits shadow 22:35:17 25° 206° (SSW) 1,179 4.0 -16.2°
Maximum altitude 22:37:35 65° 282° (WNW) 634 3.1 -16.3°
Drops below altitude 10° 22:41:43 10° 5° (N) 1,885 6.8 -16.4°
Sets 22:43:56 0° 8° (N) 2,788 7.9 -16.5°
